| time (UTC) | temp F | wind direction | speed knots | gust knots | rain 1hr in | rain 24hr in | rain mn in | humidity % | barometer mb |
| 20260508075400 | 61 | 181 | 3.5 | 10.4 | 0.00 | 0.35 | 0.35 | 87 | 1009.9 |
| 20260508074620 | 61 | 150 | 3.5 | 10.4 | 0.00 | 0.35 | 0.35 | 87 | 1009.7 |
| 20260508074119 | 61 | 307 | 2.6 | 9.6 | 0.00 | 0.35 | 0.35 | 87 | 1009.7 |
| 20260508073619 | 61 | 277 | 3.5 | 9.6 | 0.00 | 0.35 | 0.35 | 87 | 1009.2 |
| 20260508073113 | 61 | 323 | 3.5 | 9.6 | 0.00 | 0.35 | 0.35 | 87 | 1009.4 |
| 20260508072836 | 61 | 322 | 4.3 | 10.4 | 0.01 | 0.35 | 0.35 | 88 | 1009.3 |
| 20260508072112 | 61 | 300 | 6.1 | 11.3 | 0.01 | 0.35 | 0.35 | 87 | 1009.1 |
| 20260508071842 | 61 | 311 | 5.2 | 11.3 | 0.02 | 0.35 | 0.35 | 87 | 1009.2 |
| 20260508071113 | 61 | 304 | 4.3 | 11.3 | 0.02 | 0.35 | 0.35 | 88 | 1009.0 |
| 20260508070612 | 61 | 278 | 4.3 | 11.3 | 0.03 | 0.35 | 0.35 | 88 | 1008.8 |
| 20260508070113 | 61 | 47 | 5.2 | 15.6 | 0.05 | 0.35 | 0.35 | 88 | 1009.0 |
| 20260508065613 | 62 | 300 | 6.1 | 15.6 | 0.09 | 0.35 | 0.35 | 87 | 1009.1 |
| 20260508065113 | 62 | 255 | 7.0 | 16.5 | 0.09 | 0.35 | 0.35 | 87 | 1008.9 |
| 20260508064608 | 62 | 266 | 7.8 | 22.6 | 0.10 | 0.35 | 0.35 | 87 | 1008.3 |
| 20260508064108 | 62 | 239 | 7.8 | 22.6 | 0.13 | 0.35 | 0.35 | 87 | 1009.4 |
| 20260508063613 | 63 | 211 | 7.0 | 18.2 | 0.16 | 0.35 | 0.35 | 88 | 1009.5 |
| 20260508063109 | 63 | 235 | 7.0 | 18.2 | 0.17 | 0.35 | 0.35 | 90 | 1009.8 |
| 20260508062609 | 64 | 285 | 7.8 | 18.2 | 0.17 | 0.34 | 0.34 | 90 | 1009.5 |
| 20260508062109 | 64 | 269 | 7.8 | 17.4 | 0.20 | 0.34 | 0.34 | 91 | 1009.1 |
| 20260508061608 | 64 | 288 | 7.8 | 17.4 | 0.21 | 0.33 | 0.33 | 91 | 1008.7 |
| 20260508061109 | 65 | 276 | 8.7 | 16.5 | 0.24 | 0.32 | 0.32 | 90 | 1009.0 |
| 20260508060609 | 66 | 255 | 7.8 | 18.2 | 0.24 | 0.31 | 0.31 | 89 | 1008.8 |
| 20260508060108 | 68 | 250 | 4.3 | 18.2 | 0.22 | 0.30 | 0.30 | 88 | 1008.5 |
| 20260508055602 | 69 | 291 | 2.6 | 7.0 | 0.17 | 0.25 | 0.26 | 90 | 1008.5 |
| 20260508055108 | 69 | 303 | 2.6 | 7.0 | 0.17 | 0.25 | 0.25 | 90 | 1008.5 |
| 20260508054603 | 69 | 309 | 2.6 | 6.1 | 0.17 | 0.24 | 0.24 | 89 | 1008.3 |
| 20260508054103 | 69 | 352 | 2.6 | 7.8 | 0.13 | 0.21 | 0.22 | 88 | 1008.2 |
| 20260508053605 | 69 | 313 | 3.5 | 8.7 | 0.11 | 0.19 | 0.20 | 88 | 1008.3 |
| 20260508053100 | 69 | 48 | 4.3 | 8.7 | 0.10 | 0.18 | 0.18 | 87 | 1008.5 |
| 20260508052600 | 70 | 338 | 4.3 | 9.6 | 0.09 | 0.17 | 0.17 | 86 | 1008.4 |
| 20260508052101 | 70 | 326 | 3.5 | 9.6 | 0.06 | 0.14 | 0.14 | 85 | 1008.2 |
| 20260508051600 | 71 | 325 | 3.5 | 8.7 | 0.04 | 0.12 | 0.13 | 84 | 1007.9 |
| 20260508051100 | 71 | 307 | 4.3 | 8.7 | 0.00 | 0.08 | 0.08 | 83 | 1007.4 |
| 20260508050559 | 71 | 290 | 3.5 | 8.7 | 0.00 | 0.08 | 0.08 | 83 | 1007.1 |
| 20260508050100 | 71 | 356 | 3.5 | 7.0 | 0.00 | 0.08 | 0.08 | 83 | 1007.0 |
| 20260508045559 | 71 | 337 | 3.5 | 8.7 | 0.00 | 0.08 | 0.08 | 83 | 1007.0 |
| 20260508045103 | 70 | 317 | 2.6 | 8.7 | 0.01 | 0.08 | 0.08 | 84 | 1007.0 |
| 20260508044601 | 70 | 35 | 2.6 | 4.3 | 0.02 | 0.08 | 0.08 | 86 | 1007.0 |
| 20260508044313 | 69 | 56 | 2.6 | 4.3 | 0.02 | 0.08 | 0.08 | 87 | 1007.1 |
| 20260508043544 | 69 | 49 | 1.7 | 4.3 | 0.02 | 0.08 | 0.08 | 88 | 1006.9 |
| 20260508043039 | 69 | 46 | 1.7 | 4.3 | 0.02 | 0.08 | 0.08 | 87 | 1007.0 |
| 20260508042750 | 69 | 75 | 2.6 | 4.3 | 0.02 | 0.08 | 0.08 | 86 | 1007.0 |
| 20260508042027 | 69 | 70 | 1.7 | 4.3 | 0.02 | 0.08 | 0.08 | 86 | 1007.0 |
| 20260508041520 | 70 | 98 | 1.7 | 6.1 | 0.02 | 0.08 | 0.08 | 85 | 1007.1 |
| 20260508041241 | 70 | 81 | 2.6 | 6.1 | 0.04 | 0.08 | 0.08 | 85 | 1007.0 |
| 20260508040509 | 70 | 53 | 2.6 | 7.8 | 0.07 | 0.08 | 0.08 | 84 | 1007.1 |
| 20260508040231 | 70 | 91 | 2.6 | 7.8 | 0.08 | 0.08 | 0.08 | 83 | 1007.3 |
| 20260508035455 | 70 | 89 | 3.5 | 10.4 | 0.08 | 0.08 | 0.08 | 83 | 1007.5 |
| 20260508034949 | 71 | 32 | 3.5 | 10.4 | 0.06 | 0.06 | 0.07 | 81 | 1007.6 |
| 20260508034442 | 71 | 297 | 4.3 | 9.6 | 0.06 | 0.06 | 0.06 | 80 | 1007.6 |
| 20260508033936 | 71 | 301 | 4.3 | 9.6 | 0.06 | 0.06 | 0.06 | 80 | 1007.7 |
| 20260508033431 | 71 | 259 | 5.2 | 11.3 | 0.06 | 0.06 | 0.06 | 81 | 1007.7 |
| 20260508032924 | 71 | 320 | 5.2 | 12.2 | 0.06 | 0.06 | 0.06 | 80 | 1007.5 |
| 20260508032642 | 71 | 316 | 3.5 | 12.2 | 0.06 | 0.06 | 0.06 | 80 | 1007.6 |
| 20260508031912 | 71 | 335 | 4.3 | 14.8 | 0.06 | 0.06 | 0.06 | 80 | 1007.8 |
| 20260508031408 | 72 | 249 | 7.0 | 16.5 | 0.06 | 0.06 | 0.06 | 77 | 1007.7 |
| 20260508030905 | 73 | 314 | 7.8 | 17.4 | 0.03 | 0.03 | 0.03 | 75 | 1007.7 |
| 20260508030404 | 75 | 274 | 7.0 | 17.4 | 0.00 | 0.00 | 0.00 | 69 | 1008.0 |
| 20260508025902 | 77 | 194 | 7.8 | 16.5 | 0.00 | 0.00 | 0.00 | 66 | 1008.1 |
| 20260508025402 | 78 | 205 | 7.8 | 17.4 | 0.00 | 0.00 | 0.00 | 64 | 1007.7 |
| 20260508024914 | 79 | 248 | 7.8 | 17.4 | 0.00 | 0.00 | 0.00 | 62 | 1007.9 |
| 20260508024359 | 80 | 272 | 9.6 | 23.5 | 0.00 | 0.00 | 0.00 | 61 | 1007.9 |
| 20260508024353 | 81 | 281 | 12.2 | 33.0 | 0.00 | 0.00 | 0.00 | 59 | 1007.6 |
| 20260508023624 | 84 | 290 | 10.4 | 33.0 | 0.00 | 0.00 | 0.00 | 54 | 1007.6 |
| 20260508023119 | 85 | 338 | 6.1 | 16.5 | 0.00 | 0.00 | 0.00 | 56 | 1005.5 |
| 20260508022619 | 85 | 259 | 5.2 | 12.2 | 0.00 | 0.00 | 0.00 | 56 | 1005.5 |
| 20260508021856 | 85 | 281 | 7.0 | 13.0 | 0.00 | 0.00 | 0.00 | 55 | 1005.3 |
| 20260508021357 | 85 | 324 | 7.0 | 16.5 | 0.00 | 0.00 | 0.00 | 55 | 1005.2 |
| 20260508020857 | 85 | 330 | 7.8 | 16.5 | 0.00 | 0.00 | 0.00 | 55 | 1005.2 |
| 20260508020356 | 85 | 325 | 7.0 | 16.5 | 0.00 | 0.00 | 0.00 | 55 | 1004.8 |
| 20260508020120 | 85 | 131 | 7.0 | 16.5 | 0.00 | 0.00 | 0.00 | 55 | 1004.7 |
| 20260508015402 | 85 | 340 | 6.1 | 14.8 | 0.00 | 0.00 | 0.00 | 55 | 1004.9 |
| 20260508014854 | 85 | 319 | 7.0 | 14.8 | 0.00 | 0.00 | 0.00 | 55 | 1005.0 |
| 20260508014349 | 85 | 53 | 7.0 | 13.9 | 0.00 | 0.00 | 0.00 | 55 | 1005.1 |
| 20260508013842 | 85 | 334 | 5.2 | 13.9 | 0.00 | 0.00 | 0.00 | 55 | 1005.3 |
| 20260508013337 | 85 | 278 | 4.3 | 13.9 | 0.00 | 0.00 | 0.00 | 55 | 1005.1 |
| 20260508013055 | 84 | 3 | 3.5 | 10.4 | 0.00 | 0.00 | 0.00 | 56 | 1005.4 |
| 20260508012325 | 83 | 18 | 3.5 | 10.4 | 0.00 | 0.00 | 0.00 | 57 | 1005.3 |
| 20260508011819 | 82 | 19 | 2.6 | 10.4 | 0.00 | 0.00 | 0.00 | 59 | 1005.3 |
| 20260508011536 | 80 | 38 | 1.7 | 5.2 | 0.00 | 0.00 | 0.00 | 63 | 1005.4 |
| 20260508011035 | 80 | 51 | 1.7 | 5.2 | 0.00 | 0.00 | 0.00 | 64 | 1005.3 |
| 20260508010743 | 80 | 103 | 2.6 | 6.1 | 0.00 | 0.00 | 0.00 | 64 | 1005.3 |
| 20260508010019 | 80 | 68 | 1.7 | 6.1 | 0.00 | 0.00 | 0.00 | 64 | 1005.3 |
| 20260508005250 | 80 | 76 | 1.7 | 5.2 | 0.00 | 0.00 | 0.00 | 64 | 1005.4 |
| 20260508005009 | 80 | 83 | 1.7 | 5.2 | 0.00 | 0.00 | 0.00 | 65 | 1005.4 |
| 20260508004243 | 80 | 69 | 1.7 | 4.3 | 0.00 | 0.00 | 0.00 | 64 | 1005.4 |
| 20260508003731 | 80 | 69 | 0.9 | 2.6 | 0.00 | 0.00 | 0.00 | 64 | 1005.5 |
| 20260508003715 | 80 | 88 | 0.9 | 4.3 | 0.00 | 0.00 | 0.00 | 64 | 1005.5 |
| 20260508002719 | 80 | 77 | 1.7 | 4.3 | 0.00 | 0.00 | 0.00 | 65 | 1005.4 |
| 20260508002213 | 79 | 115 | 1.7 | 3.5 | 0.00 | 0.00 | 0.00 | 65 | 1005.3 |
| 20260508001707 | 79 | 82 | 1.7 | 5.2 | 0.00 | 0.00 | 0.00 | 65 | 1005.4 |
| 20260508001200 | 79 | 29 | 2.6 | 5.2 | 0.00 | 0.00 | 0.00 | 65 | 1005.3 |
| 20260508000656 | 79 | 13 | 2.6 | 7.8 | 0.00 | 0.00 | 0.00 | 66 | 1005.1 |
| 20260508000413 | 80 | 53 | 3.5 | 7.8 | 0.00 | 0.00 | 0.00 | 65 | 1005.3 |
| 20260507235642 | 80 | 56 | 2.6 | 6.1 | 0.00 | 0.00 | 0.00 | 65 | 1005.2 |
| 20260507235138 | 80 | 53 | 1.7 | 6.1 | 0.00 | 0.00 | 0.00 | 64 | 1005.2 |
| 20260507234631 | 81 | 79 | 1.7 | 4.3 | 0.00 | 0.00 | 0.00 | 63 | 1005.3 |
| 20260507234124 | 81 | 95 | 1.7 | 5.2 | 0.00 | 0.00 | 0.00 | 63 | 1005.5 |
| 20260507233114 | 80 | 84 | 0.9 | 2.6 | 0.00 | 0.00 | 0.00 | 64 | 1005.6 |
| 20260507232612 | 80 | 128 | 0.9 | 3.5 | 0.00 | 0.00 | 0.00 | 65 | 1005.7 |
| 20260507232102 | 80 | 88 | 0.9 | 3.5 | 0.00 | 0.00 | 0.00 | 65 | 1005.7 |
| 20260507231554 | 80 | 93 | 0.9 | 3.5 | 0.00 | 0.00 | 0.00 | 65 | 1005.7 |
| 20260507231309 | 80 | 80 | 0.9 | 2.6 | 0.00 | 0.00 | 0.00 | 65 | 1005.7 |
| 20260507230538 | 80 | 79 | 0.9 | 2.6 | 0.00 | 0.00 | 0.00 | 66 | 1005.7 |
| 20260507230032 | 80 | 75 | 0.9 | 2.6 | 0.00 | 0.00 | 0.00 | 67 | 1005.7 |
| 20260507225528 | 80 | 75 | 0.9 | 2.6 | 0.00 | 0.00 | 0.00 | 67 | 1005.8 |
| 20260507225033 | 80 | 65 | 1.7 | 3.5 | 0.00 | 0.00 | 0.00 | 66 | 1005.7 |
| 20260507224520 | 80 | 56 | 0.9 | 3.5 | 0.00 | 0.00 | 0.00 | 66 | 1005.7 |
| 20260507224304 | 81 | 76 | 0.9 | 0.9 | 0.00 | 0.00 | 0.00 | 65 | 1005.6 |
| 20260507223625 | 81 | 76 | 0.9 | 2.6 | 0.00 | 0.00 | 0.00 | 65 | 1005.7 |
| 20260507223119 | 81 | 0.0 | 0.0 | 0.00 | 0.00 | 0.00 | 65 | 1005.5 | |
| 20260507222632 | 81 | 0.0 | 0.0 | 0.00 | 0.00 | 0.00 | 65 | 1005.5 | |
| 20260507213159 | 84 | 60 | 1.7 | 1.7 | 0.00 | 0.00 | 0.00 | 59 | 1006.4 |
| 20260507212527 | 85 | 60 | 2.6 | 4.3 | 0.00 | 0.00 | 0.00 | 58 | 1006.5 |
| 20260507212025 | 85 | 72 | 1.7 | 5.2 | 0.00 | 0.00 | 0.00 | 57 | 1006.4 |
| 20260507211528 | 85 | 33 | 1.7 | 5.2 | 0.00 | 0.00 | 0.00 | 56 | 1006.4 |
| 20260507211247 | 86 | 22 | 0.9 | 5.2 | 0.00 | 0.00 | 0.00 | 56 | 1006.5 |
| 20260507210533 | 86 | 74 | 0.9 | 3.5 | 0.00 | 0.00 | 0.00 | 56 | 1006.4 |
| 20260507210027 | 86 | 321 | 0.0 | 2.6 | 0.00 | 0.00 | 0.00 | 56 | 1006.5 |
| 20260507205527 | 86 | 79 | 0.0 | 1.7 | 0.00 | 0.00 | 0.00 | 56 | 1006.5 |
| 20260507205031 | 86 | 80 | 0.9 | 5.2 | 0.00 | 0.00 | 0.00 | 56 | 1006.5 |
| 20260507205015 | 86 | 44 | 2.6 | 7.0 | 0.00 | 0.00 | 0.00 | 57 | 1006.4 |
| 20260507204030 | 86 | 59 | 2.6 | 7.0 | 0.00 | 0.00 | 0.00 | 57 | 1006.4 |
| 20260507203534 | 85 | 17 | 2.6 | 5.2 | 0.00 | 0.00 | 0.00 | 57 | 1006.4 |
| 20260507203026 | 86 | 315 | 2.6 | 2.6 | 0.00 | 0.00 | 0.00 | 57 | 1006.4 |
| 20260507202532 | 86 | 0.0 | 0.0 | 0.00 | 0.00 | 0.00 | 56 | 1006.2 | |
| 20260507201428 | 87 | 53 | 1.7 | 8.7 | 0.00 | 0.00 | 0.00 | 55 | 1006.4 |
| 20260507200706 | 87 | 73 | 1.7 | 3.5 | 0.00 | 0.00 | 0.00 | 55 | 1006.3 |
| 20260507200203 | 87 | 79 | 0.9 | 3.5 | 0.00 | 0.00 | 0.00 | 55 | 1006.4 |
| 20260507195704 | 87 | 79 | 0.9 | 3.5 | 0.00 | 0.00 | 0.00 | 54 | 1006.4 |
| 20260507195202 | 87 | 80 | 0.9 | 4.3 | 0.00 | 0.00 | 0.00 | 54 | 1006.4 |
| 20260507194701 | 88 | 50 | 1.7 | 4.3 | 0.00 | 0.00 | 0.00 | 53 | 1006.4 |
| 20260507194428 | 88 | 0.0 | 0.0 | 0.00 | 0.00 | 0.00 | 52 | 1006.5 | |
| 20260507193705 | 88 | 0.0 | 0.0 | 0.00 | 0.00 | 0.00 | 52 | 1006.5 | |
| 20260507191854 | 88 | 313 | 2.6 | 8.7 | 0.00 | 0.00 | 0.00 | 51 | 1006.7 |
| 20260507191352 | 88 | 332 | 3.5 | 8.7 | 0.00 | 0.00 | 0.00 | 51 | 1006.8 |
| 20260507190852 | 88 | 342 | 3.5 | 8.7 | 0.00 | 0.00 | 0.00 | 50 | 1006.7 |
| 20260507190352 | 88 | 331 | 3.5 | 9.6 | 0.00 | 0.00 | 0.00 | 50 | 1006.5 |
| 20260507185852 | 89 | 316 | 2.6 | 9.6 | 0.00 | 0.00 | 0.00 | 50 | 1006.6 |
| 20260507185351 | 89 | 31 | 3.5 | 10.4 | 0.00 | 0.00 | 0.00 | 50 | 1006.6 |
| 20260507184854 | 89 | 354 | 4.3 | 10.4 | 0.00 | 0.00 | 0.00 | 50 | 1006.7 |
| 20260507184353 | 89 | 338 | 4.3 | 13.0 | 0.00 | 0.00 | 0.00 | 50 | 1006.7 |
| 20260507183850 | 89 | 304 | 3.5 | 13.0 | 0.00 | 0.00 | 0.00 | 50 | 1006.8 |
| 20260507183350 | 89 | 326 | 1.7 | 6.1 | 0.00 | 0.00 | 0.00 | 51 | 1006.6 |
| 20260507183109 | 89 | 348 | 2.6 | 6.1 | 0.00 | 0.00 | 0.00 | 50 | 1006.6 |
| 20260507182347 | 89 | 345 | 3.5 | 8.7 | 0.00 | 0.00 | 0.00 | 50 | 1006.6 |
| 20260507181846 | 89 | 337 | 4.3 | 8.7 | 0.00 | 0.00 | 0.00 | 50 | 1006.5 |
| 20260507181346 | 89 | 345 | 3.5 | 8.7 | 0.00 | 0.00 | 0.00 | 50 | 1006.5 |
| 20260507181112 | 89 | 291 | 2.6 | 5.2 | 0.00 | 0.00 | 0.00 | 50 | 1006.5 |
| 20260507180346 | 90 | 326 | 2.6 | 8.7 | 0.00 | 0.00 | 0.00 | 50 | 1006.4 |
| 20260507175846 | 90 | 323 | 3.5 | 8.7 | 0.00 | 0.00 | 0.00 | 49 | 1006.3 |
| 20260507175610 | 90 | 326 | 3.5 | 11.3 | 0.00 | 0.00 | 0.00 | 50 | 1006.4 |
| 20260507174846 | 90 | 21 | 4.3 | 11.3 | 0.00 | 0.00 | 0.00 | 50 | 1006.4 |
| 20260507174346 | 90 | 32 | 4.3 | 10.4 | 0.00 | 0.00 | 0.00 | 50 | 1006.4 |
| 20260507173846 | 90 | 313 | 4.3 | 10.4 | 0.00 | 0.00 | 0.00 | 49 | 1006.4 |
| 20260507173345 | 90 | 19 | 5.2 | 14.8 | 0.00 | 0.00 | 0.00 | 49 | 1006.5 |
| 20260507172845 | 90 | 316 | 6.1 | 17.4 | 0.00 | 0.00 | 0.00 | 50 | 1006.5 |
| 20260507172346 | 90 | 326 | 7.0 | 17.4 | 0.00 | 0.00 | 0.00 | 49 | 1006.5 |
| 20260507171845 | 90 | 323 | 7.8 | 16.5 | 0.00 | 0.00 | 0.00 | 49 | 1006.4 |
| 20260507171345 | 90 | 29 | 7.8 | 16.5 | 0.00 | 0.00 | 0.00 | 49 | 1006.4 |
| 20260507171333 | 90 | 324 | 7.8 | 12.2 | 0.00 | 0.00 | 0.00 | 50 | 1006.4 |
| 20260507170400 | 90 | 0.0 | 0.0 | 0.00 | 0.00 | 0.00 | 50 | 1006.5 |